Location: Little Munden
(51.8667°N, 0.0500°W)
Time: 04:23:37
(UTC+00:00)

Daily predictions for brighter satellites

Satellite Brightness Start Highest point End
(mag) Time Altitude Azimuth Time Altitude Azimuth Time Altitude Azimuth
Cosmos 2369 Rocket 3.8 00:10:57 30° NNE 00:10:57 30° NNE 00:13:48 10° NNE
USA 234 4.1 00:03:28 10° ENE 00:17:11 - WNW 00:07:47 41° NE
COSMOS 2455 4.4 00:26:25 30° NNW 00:26:36 30° NNW 00:31:52 10° NNE
Cosmos 2227 Rocket 3.5 00:50:27 10° NNW 00:54:07 35° N 00:54:07 35° N
SL-16 R/B 3.0 01:15:09 55° N 01:15:09 55° N 01:20:00 10° NNW
ATLAS 2AS CENTAUR R/B 4.3 01:11:14 10° WNW 01:18:18 34° N 01:25:02 10° ENE
CZ-2D R/B 3.4 01:15:15 10° NNE 01:18:48 35° NE 01:18:48 35° NE
Cosmos 1943 Rocket 4.0 01:21:05 23° NNW 01:21:05 23° NNW 01:25:19 10° NNE
Lacrosse 5 4.3 01:29:27 14° E 01:29:27 14° E 01:30:33 10° E
Resurs 1-4 Rocket 3.3 01:22:19 10° NNE 01:25:56 39° NE 01:25:56 39° NE
ATLAS 5 CENTAUR R/B 3.7 01:30:41 25° NE 01:30:41 25° NE 01:32:48 10° NE
Cosmos 2297 Rocket 3.8 01:37:03 10° NNW 01:39:21 25° NW 01:39:21 25° NW
Cosmos 2082 4.3 01:43:05 10° NNW 01:47:38 52° N 01:47:38 52° N
USA 234 3.3 01:46:03 10° ESE 01:52:33 73° NNE 01:55:07 40° NW
Cosmos 2369 Rocket 4.0 01:52:43 21° NW 01:53:09 21° NW 01:57:27 10° NNE
CZ-4C R/B 4.1 01:51:44 19° NW 01:55:05 30° N 02:01:14 10° ENE
CZ-4B R/B 4.5 01:54:19 10° NNE 01:58:43 42° E 01:58:43 42° E
Cosmos 1697 Rocket 3.8 02:01:36 35° ESE 02:01:36 35° ESE 02:06:39 10° NE
SL-8 Rocket 4.5 01:56:11 10° NNW 02:00:56 50° NW 02:00:56 50° NW
SL-19 R/B 4.5 02:05:20 65° N 02:05:20 65° N 02:10:11 10° NNW
NOSS 2-2 (C) 4.5 02:06:12 72° E 02:06:12 72° E 02:12:55 10° SE
Cosmos 1980 Rocket 4.0 02:05:36 21° ESE 02:06:54 23° ESE 02:11:14 10° NE
Cosmos 2263 Rocket 3.8 02:04:31 10° NNW 02:09:38 34° NE 02:14:45 10° ESE
Cosmos 2366 rocket 4.3 02:11:20 10° NNW 02:16:30 54° NW 02:16:30 54° NW
Cosmos 2218 Rocket 4.3 02:11:43 10° NNW 02:16:58 53° NW 02:16:58 53° NW
Gbstr 26 Del rocket 4.4 02:18:38 55° W 02:20:44 86° S 02:28:30 10° ESE
CZ-3B R/B 3.4 02:25:23 32° E 02:25:23 32° E 02:29:35 10° ENE
ADEOS II 2.2 02:20:08 10° NNE 02:25:24 67° ESE 02:25:24 67° ESE
Cosmos 1151 Rocket 4.0 02:26:32 44° ENE 02:26:32 44° ENE 02:30:05 10° NNE
Nadezhda 3 Rocket 4.3 02:26:57 44° SE 02:28:37 59° E 02:34:39 10° NNE
ARIANE 5 R/B 3.6 02:25:22 10° NNE 02:30:09 38° E 02:31:23 33° SE
Cosmos 1656 3.5 02:32:28 83° N 02:32:28 83° N 02:37:52 10° NNE
IDEFIX/ARIANE 42P 3.9 02:29:43 10° NNE 02:34:32 34° E 02:36:51 24° SE
IRS-1D 3.5 02:29:57 10° NNE 02:35:22 86° ESE 02:35:24 86° ESE
Cosmos 2227 Rocket 4.2 02:34:44 10° NW 02:35:52 16° NW 02:35:52 16° NW
Cosmos 2181 Rocket 4.3 02:43:38 46° WNW 02:43:38 46° WNW 02:49:29 10° N
CBERS-1 3.9 02:39:23 10° NNE 02:44:31 86° WNW 02:44:31 86° WNW
Meteor 1-22 4.5 02:40:41 10° NNW 02:45:54 74° WNW 02:45:54 74° WNW
IRS-1C 4.2 02:46:18 10° NNE 02:51:40 73° ESE 02:52:48 54° SSE
Meteor 1-20 Rocket 4.0 02:50:15 10° NNW 02:55:42 70° W 02:55:51 69° WSW
USA 307 3.6 02:57:59 46° ESE 02:57:59 46° ESE 03:01:32 10° ENE
Cosmos 1238 Rocket 4.2 02:50:53 10° N 02:57:33 71° ENE 03:03:43 10° SSE
SJ 16-02 2.4 02:53:22 10° NNW 02:57:37 44° ENE 03:01:49 10° SE
SL-16 R/B 4.0 03:00:15 20° WNW 03:00:15 20° WNW 03:03:00 10° NW
USA 267 3.5 02:51:58 10° ENE 02:58:26 58° SE 03:00:27 42° SSW
Cosmos 1782 3.3 02:59:09 54° ESE 02:59:22 54° E 03:03:19 10° NNE
CZ-2D R/B 3.0 02:55:33 10° N 03:00:07 34° WNW 03:00:07 34° WNW
Cosmos 44 4.3 02:59:36 31° SE 03:00:27 33° ESE 03:04:38 10° NE
USA 308 3.5 03:01:02 49° SE 03:01:02 49° SE 03:04:45 10° ENE
Cosmos 389 Rocket 3.6 03:02:26 41° E 03:02:26 41° E 03:05:49 10° NNE
USA 276 4.2 03:04:24 24° ESE 03:04:24 24° ESE 03:05:54 10° E
Cosmos 1606 4.3 03:04:58 26° NNW 03:04:58 26° NNW 03:06:58 10° N
Cosmos 2278 4.0 03:02:26 40° S 03:04:21 61° ESE 03:09:59 10° NE
Resurs 1-4 Rocket 3.1 03:02:33 10° N 03:07:00 30° WNW 03:07:00 30° WNW
ATLAS CENTAUR R/B 4.1 02:52:07 10° W 03:07:36 62° N 03:13:11 10° E
Lacrosse 5 1.8 03:08:39 62° SSW 03:09:19 71° SE 03:14:23 10° ENE
H-2A R/B 3.0 03:06:29 10° SE 03:10:44 50° ENE 03:15:05 10° N
ATLAS 2AS CENTAUR R/B 3.7 03:03:26 10° NW 03:10:58 52° NNE 03:17:57 10° ESE
NPP 4.5 03:06:42 10° N 03:11:31 34° WNW 03:11:43 34° WNW
Cosmos 2369 3.6 03:11:30 52° SW 03:13:01 87° WNW 03:18:48 10° NNE
ATLAS 5 CENTAUR R/B 2.9 03:12:12 28° NW 03:13:11 30° NNW 03:17:41 10° NE
SL-08 R/B 3.7 03:16:44 44° WNW 03:16:44 44° WNW 03:20:22 10° NNW
Landsat 5 4.0 03:18:51 10° SSE 03:23:19 65° ENE 03:27:45 10° N
ADEOS Rocket 4.1 03:18:25 10° SE 03:24:43 48° ENE 03:30:27 10° N
CZ-4B R/B 4.3 03:23:22 10° ESE 03:25:39 18° ENE 03:27:59 10° NNE
Cosmos 1818 4.5 03:24:47 30° WNW 03:26:27 37° NNW 03:31:31 10° NE
Cosmos 1470 Rocket 4.3 03:24:41 10° NNW 03:27:56 36° WNW 03:27:56 36° WNW
IRS-P3 4.2 03:25:34 10° N 03:30:48 56° WNW 03:32:20 41° WSW
Spot 4 Rocket 4.0 03:25:37 10° NNE 03:30:48 83° ESE 03:33:40 27° SSW
MSX 4.0 03:27:16 10° NNE 03:33:05 71° ESE 03:37:58 15° S
ERS-2 3.3 03:30:01 10° SE 03:33:30 44° ENE 03:37:01 10° N
USA 234 3.3 03:29:20 10° SE 03:35:45 57° SW 03:42:11 10° WNW
CZ-4B R/B 4.3 03:33:15 10° N 03:37:47 34° WNW 03:38:39 32° W
Cosmos 2360 4.2 03:37:38 36° SW 03:39:58 68° NW 03:45:43 10° NNE
Cosmos 1536 4.4 03:36:53 10° N 03:40:43 37° ENE 03:44:31 10° SE
Cosmos 1898 Rocket 3.7 03:35:32 10° NNW 03:40:48 74° ENE 03:46:05 10° SSE
X-37B 2.6 03:42:02 19° SSE 03:42:02 19° SSE 03:43:29 10° SE
CSL-04 DEB 4.5 03:37:50 10° SSE 03:42:10 87° WSW 03:46:35 10° NNW
Iridium 2 3.5 03:42:11 55° SW 03:42:45 66° W 03:46:31 10° N
IRIDIUM 104 4.5 03:38:47 10° N 03:44:01 74° E 03:49:14 10° S
BREEZE M DEB (TANK) 4.5 03:27:00 10° WNW 03:45:15 52° SW 03:50:21 10° SE
CZ-4C R/B 4.0 03:39:08 10° NW 03:45:18 41° NNE 03:52:32 10° E
Cosmos 1697 Rocket 3.0 03:43:20 34° WSW 03:45:25 50° NW 03:50:54 10° NNE
SL-8 R/B 4.4 03:45:53 33° SSW 03:46:03 33° SSW 03:50:19 10° SE
Cosmos 1980 Rocket 2.2 03:47:24 30° SW 03:50:21 75° WNW 03:56:03 10° NNE
Cosmos 972 Rocket 4.3 03:49:27 34° WSW 03:50:58 44° WNW 03:55:46 10° NNE
Cosmos 1515 Rocket 3.9 03:50:06 38° WSW 03:51:13 46° WNW 03:55:31 10° N
IRIDIUM 114 4.3 03:47:55 10° N 03:53:11 87° E 03:58:25 10° S
Cosmos 2263 Rocket 2.2 03:48:21 10° NW 03:53:54 59° WSW 03:59:27 10° SSE
Cosmos 1934 Rocket 4.2 03:48:54 10° NNW 03:54:38 45° W 03:59:39 13° SSW
Cosmos 921 Rocket 2.9 03:52:49 23° SSW 03:55:20 80° ESE 03:59:33 10° NNE
Meteor 1-26 Rocket 4.4 03:53:50 29° SW 03:56:09 47° WNW 04:01:24 10° N
Cosmos 2322 Rocket 3.5 03:52:05 10° S 03:57:17 38° ESE 04:02:32 10° NE
USA 32 4.3 03:53:30 10° N 03:58:47 71° E 04:04:01 10° SSE
Cosmos 1844 Rocket 3.8 03:54:23 10° NNW 03:59:51 47° NE 04:05:17 10° SE
Cosmos 1500 3.3 03:57:12 10° NNW 04:00:57 49° W 04:03:18 20° SSW
IRIDIUM 103 4.2 03:57:05 10° N 04:02:20 80° W 04:07:33 10° S
Cosmos 1151 Rocket 4.4 04:03:24 22° WNW 04:03:44 22° WNW 04:07:08 10° NNW
Cosmos 1812 2.6 04:01:20 18° SSW 04:04:07 85° W 04:08:01 10° N
Cosmos 1707 Rocket 4.3 04:00:26 10° S 04:04:39 54° E 04:08:55 10° NNE
ADEOS II 3.3 04:00:30 10° N 04:04:41 25° WNW 04:06:19 21° W
USA 305 2.8 04:03:31 31° WSW 04:05:29 85° NNW 04:09:45 10° ENE
SL-16 R/B 2.9 04:00:50 10° S 04:06:19 53° ESE 04:11:50 10° NE
Cosmos 1666 2.6 04:02:44 10° N 04:06:36 90° N 04:10:24 10° S
Cosmos 1937 Rocket 3.5 04:01:31 10° NNW 04:06:43 86° ENE 04:11:51 10° SSE
CZ-4C R/B 3.4 04:06:18 23° SSW 04:08:05 41° W 04:11:30 10° NNW
Cosmos 192 4.4 04:05:48 24° SW 04:08:43 62° WNW 04:13:38 10° NNE
ARIANE 5 R/B 3.1 04:04:34 10° N 04:09:16 37° WNW 04:11:42 23° WSW
USA 306 2.9 04:07:32 29° WSW 04:09:41 83° NNW 04:13:58 10° ENE
IDEFIX/ARIANE 42P 3.0 04:09:16 10° N 04:14:14 43° WNW 04:17:39 19° SW
COSMOS 2441 4.5 04:11:34 10° N 04:16:25 59° WNW 04:20:46 13° SSW
Meteor 1-10 Rocket 4.3 04:10:58 10° SSW 04:16:46 82° WNW 04:22:43 10° NNE
Cosmos 1153 Rocket 4.5 04:10:44 10° NNW 04:17:07 71° W 04:23:24 10° S
ASTEX 1 4.2 04:13:41 10° N 04:18:07 33° WNW 04:20:50 19° WSW
CZ-2C R/B 2.6 04:13:18 10° NNE 04:18:27 84° ESE 04:23:39 10° SSW
Cosmos 1733 Rocket 3.4 04:14:15 10° N 04:18:37 68° ENE 04:22:56 10° SSE
Cosmos 2228 Rocket 3.4 04:17:07 19° SW 04:20:00 45° WNW 04:24:16 10° N
IRIDIUM 106 4.4 04:15:30 10° N 04:20:38 58° W 04:25:44 10° SSW
Cosmos 1605 Rocket 4.3 04:15:23 10° NNW 04:21:26 46° W 04:27:27 10° SSW
SAR-Lupe-4 3.9 04:18:49 10° SSE 04:22:23 69° ENE 04:26:00 10° N
CZ-2D R/B 4.4 04:19:14 10° N 04:22:55 30° WNW 04:24:57 20° WSW
Cosmos 1869 Rocket 4.0 04:21:26 10° NNW 04:25:27 37° W 04:29:27 10° SSW
Meteor 1-5 Rocket 4.4 04:20:34 10° NNW 04:25:33 42° W 04:30:35 10° SSW
SL-4 R/B 3.9 04:21:42 10° SSW 04:25:37 28° SE 04:29:42 10° E
Cosmos 1763 Rocket 3.7 04:22:50 10° SSW 04:28:09 79° ESE 04:33:29 10° NNE
Meteor 2-6 Rocket 4.4 04:26:20 10° SSW 04:31:54 54° WNW 04:37:40 10° N
Cosmos 2016 Rocket 4.4 04:25:52 10° N 04:32:00 68° ENE 04:38:04 10° SSE
CZ-2C R/B 3.5 04:29:45 10° N 04:33:08 32° WNW 04:35:35 16° WSW
SAR-Lupe-1 4.0 04:30:59 10° SSE 04:34:33 90° NNE 04:38:10 10° NNW
SJ 16-02 2.3 04:32:21 10° NW 04:35:59 25° W 04:39:35 10° SSW
Cosmos 1782 4.4 04:34:47 16° W 04:36:02 18° WNW 04:38:51 10° NNW
Meteor 1-4 Rocket 2.7 04:33:51 11° SSW 04:37:08 49° WNW 04:40:35 10° N
Cosmos 389 Rocket 4.1 04:36:18 16° W 04:37:20 18° WNW 04:39:54 10° NNW
USA 307 3.0 04:34:10 17° W 04:37:25 72° NNW 04:41:41 10° ENE
PSLV R/B 3.5 04:33:58 10° N 04:38:08 60° WNW 04:42:15 10° SSW
NOSS 3-4 (A) 3.8 04:31:27 10° NW 04:38:18 71° SW 04:45:56 10° SSE
NOSS 3-4 (C) 3.8 04:31:33 10° NW 04:38:24 71° SW 04:46:03 10° SSE
Cosmos 1862 Rocket 4.2 04:34:29 10° S 04:38:48 60° E 04:43:07 10° NNE
USA 276 2.3 04:36:45 19° W 04:38:54 58° S 04:42:04 10° ESE
USA 308 3.0 04:37:13 16° W 04:40:36 71° N 04:44:52 10° ENE
Cosmos 44 3.6 04:38:02 15° WSW 04:41:31 48° NW 04:46:10 10° NE
USA 267 3.4 04:35:05 10° ENE 04:41:37 72° NNW 04:47:47 12° W
BREEZE-M DEB (TANK) 4.0 04:35:46 10° SW 04:41:40 28° S 04:44:23 10° ESE
BREEZE-M DEB (TANK) 3.7 04:40:44 15° WSW 04:43:21 60° SSE 04:52:13 10° E
PAYLOAD A 3.9 04:38:53 10° N 04:43:30 55° WNW 04:48:04 10° SW
Cosmos 1743 3.0 04:41:25 10° N 04:45:14 72° ENE 04:49:02 10° SSE
ERBS 2.3 04:43:59 13° SW 04:46:51 76° SSE 04:50:13 10° ENE
H-2A R/B 3.2 04:43:26 10° SSW 04:46:57 23° W 04:50:33 10° NW
NOSS 3-3 (A) 4.1 04:44:08 11° SW 04:49:57 72° NW 04:56:49 10° NE
NOSS 3-3 (C) 4.0 04:44:18 11° SW 04:50:04 72° NW 04:56:53 10° NE
Cosmos 1725 Rocket 4.2 04:45:28 10° N 04:51:42 78° ENE 04:57:53 10° SSE
Lacrosse 5 2.3 04:47:50 12° W 04:52:30 53° NNW 04:57:29 10° ENE
Cosmos 540 Rocket 3.8 04:50:19 10° SSW 04:55:28 72° ESE 05:00:39 10° NNE
Cosmos 468 Rocket 4.1 04:51:04 10° SW 04:56:19 60° WNW 05:01:32 10° NNE
CZ-4B R/B 1.9 04:54:46 10° SSW 04:57:43 35° W 05:00:45 10° NNW
Cosmos 2100 Rocket 4.1 04:51:46 10° NNW 04:57:59 57° W 05:04:11 10° SSW
ATLAS 5 CENTAUR R/B 3.8 04:55:26 10° NW 04:59:17 23° N 05:03:36 10° NE
Cosmos 1727 Rocket 4.3 04:54:40 10° SSW 05:00:48 49° WNW 05:06:56 10° N
ALOS 2.4 04:56:16 10° NNE 05:00:59 86° ESE 05:05:39 10° SSW
CZ-4B R/B 3.9 04:58:32 10° NNE 05:02:07 46° E 05:05:36 10° S
ATLAS 2AS CENTAUR R/B 2.9 04:54:48 10° NW 05:02:15 63° SW 05:09:05 10° SSE
Cosmos 1802 Rocket 4.0 04:56:57 10° NNW 05:03:05 67° W 05:09:16 10° S
CZ-4B R/B 4.2 04:59:25 10° NNE 05:03:44 83° ESE 05:08:11 10° SSW
Meteor 1-11 Rocket 4.4 04:58:35 10° NNW 05:03:46 34° W 05:08:48 10° SSW
ERS-2 3.5 05:04:40 10° SW 05:07:17 18° W 05:09:55 10° NW
Okean 1 3.9 05:03:37 10° S 05:07:38 64° E 05:11:40 10° NNE
ADEOS Rocket 3.6 05:04:10 10° SSW 05:10:22 39° W 05:16:03 10° NNW
Cosmos 1484 Rocket 2.8 05:06:35 10° N 05:10:33 69° WNW 05:14:32 10° SSW
Cosmos 1689 Rocket 2.1 05:07:39 10° S 05:10:34 55° WSW 05:13:32 10° NNW
COSMO-SKYMED 1 2.5 05:08:51 10° S 05:13:12 77° WSW 05:17:34 10° NNW
Cosmos 1459 Rocket 4.2 05:07:54 10° NNW 05:13:42 47° W 05:19:25 10° SSW
